Location: Buch
(49.7331°N, 12.1098°E)
Time: 09:24:05
(UTC+00:00)

Cosmos 1707 Rocket - Pass Details

Date: 12 May 2021
Orbit: 606 x 631 km, 82.5° (Epoch: 13 June)

Event Time Altitude Azimuth Distance (km) Brightness Sun altitude
Exits shadow 21:12:32 35° 144° (SE) 1,008 4.1 -17.3°
Maximum altitude 21:13:57 48° 94° (E) 808 3.9 -17.4°
Drops below altitude 10° 21:18:13 10° 20° (NNE) 2,002 6.8 -17.7°
Sets 21:20:30 0° 15° (NNE) 2,918 7.8 -17.9°
